Starlink 31975

operational
NORAD ID: 59886 Int'l Des: 2024-100 Owner: SPXS Country: US Constellation: starlink
LEOCIRCULAR

About Starlink 31975

Description loading...

Live Position

Loading 3D Globe...

Upcoming Passes

Altitude History

Altitude vs Time

uPlot chart will show altitude changes over time

Two-Line Element Set

1 59886U 24100B 26094.95625583 .00006486 00000-0 24478-3 0 9999
2 59886 43.0004 337.0901 0001834 285.2486 74.8163 15.27613048105173
Epoch: Apr 4, 2026 • Age: 11 hours

Current Status

Altitude 482.2 km
Velocity 7.63 km/s
Sub-Earth Point 1.33°N, 6.95°W
Launch Date May 28, 2024
Age 1.8 years
Type internet

Technical Details

Classification Payload
Mass 730.00 kg
Dry Mass 700.00 kg
Total Mass 730.00 kg
Length 0.30 m
Diameter 4.10 m
Span 29.00 m
Shape Box + pan
Manufacturer SPXS
Bus Type Starlink V2M
Phase Status In Orbit
Owner/State SPXS/US

Large Constellations

Loading constellations...